Time,TemperatureF,DewpointF,PressureIn,WindDirection,WindDirectionDegrees,WindSpeedMPH,WindSpeedGustMPH,Humidity,HourlyPrecipIn,Conditions,Clouds,dailyrainin,SoftwareType,DateUTC
2013-06-24 00:01:00,73.7,66.1,29.99,West,263,0.0,0.0,77,0.00,,---,0.00,VWS V14.00,2013-06-24 04:01:00,
2013-06-24 00:02:00,73.7,66.1,29.99,West,263,0.0,0.0,77,0.00,,---,0.00,VWS V14.00,2013-06-24 04:02:00,
2013-06-24 00:07:00,73.6,65.9,30.00,West,263,0.0,1.0,77,0.00,,---,0.00,VWS V14.00,2013-06-24 04:07:00,
2013-06-24 00:09:00,73.6,65.9,30.00,West,263,0.0,1.0,77,0.00,,---,0.00,VWS V14.00,2013-06-24 04:09:00,
2013-06-24 00:14:00,73.6,66.3,30.00,West,275,0.0,5.0,78,0.00,,---,0.00,VWS V14.00,2013-06-24 04:14:00,
2013-06-24 00:19:00,73.5,66.2,30.00,WSW,253,1.0,7.0,78,0.00,,---,0.00,VWS V14.00,2013-06-24 04:19:00,
2013-06-24 00:24:00,73.5,66.2,30.00,WSW,257,1.0,7.0,78,0.00,,---,0.00,VWS V14.00,2013-06-24 04:24:00,
2013-06-24 00:29:00,73.5,66.2,30.01,West,271,5.0,7.0,78,0.00,,---,0.00,VWS V14.00,2013-06-24 04:29:00,
2013-06-24 00:34:00,73.5,66.2,30.01,West,270,0.0,7.0,78,0.00,,---,0.00,VWS V14.00,2013-06-24 04:34:00,
2013-06-24 00:39:00,73.4,66.5,30.01,West,269,0.0,7.0,79,0.00,,---,0.00,VWS V14.00,2013-06-24 04:39:00,
2013-06-24 00:44:00,73.4,66.5,30.01,WSW,253,5.0,7.0,79,0.00,,---,0.00,VWS V14.00,2013-06-24 04:44:00,
2013-06-24 00:49:00,73.3,66.4,30.01,West,265,0.0,7.0,79,0.00,,---,0.00,VWS V14.00,2013-06-24 04:49:00,
2013-06-24 00:54:00,73.1,66.6,30.01,West,271,0.0,7.0,80,0.00,,---,0.00,VWS V14.00,2013-06-24 04:54:00,
2013-06-24 00:59:00,73.1,66.6,30.01,West,271,0.0,7.0,80,0.00,,---,0.00,VWS V14.00,2013-06-24 04:59:00,
2013-06-24 01:05:00,73.0,66.5,30.01,West,271,0.0,1.0,80,0.00,,---,0.00,VWS V14.00,2013-06-24 05:05:00,
2013-06-24 01:10:00,72.9,66.4,30.01,West,270,0.0,7.0,80,0.00,,---,0.00,VWS V14.00,2013-06-24 05:10:00,
2013-06-24 01:15:00,72.8,66.6,30.01,WSW,257,0.0,7.0,81,0.00,,---,0.00,VWS V14.00,2013-06-24 05:15:00,
2013-06-24 01:20:00,72.7,66.5,30.01,WSW,257,0.0,7.0,81,0.00,,---,0.00,VWS V14.00,2013-06-24 05:20:00,
2013-06-24 01:25:00,72.6,66.4,30.01,West,259,0.0,7.0,81,0.00,,---,0.00,VWS V14.00,2013-06-24 05:25:00,
2013-06-24 01:30:00,72.5,66.3,30.01,West,259,0.0,0.0,81,0.00,,---,0.00,VWS V14.00,2013-06-24 05:30:00,
2013-06-24 01:35:00,72.4,66.6,30.02,WSW,248,0.0,2.0,82,0.00,,---,0.00,VWS V14.00,2013-06-24 05:35:00,
2013-06-24 01:40:00,72.3,66.5,30.02,WSW,248,0.0,2.0,82,0.00,,---,0.00,VWS V14.00,2013-06-24 05:40:00,
2013-06-24 01:45:00,72.2,66.4,30.01,West,272,0.0,6.0,82,0.00,,---,0.00,VWS V14.00,2013-06-24 05:45:00,
2013-06-24 01:50:00,72.0,66.2,30.01,West,271,0.0,6.0,82,0.00,,---,0.00,VWS V14.00,2013-06-24 05:50:00,
2013-06-24 01:56:00,71.9,66.5,30.02,West,272,1.0,6.0,83,0.00,,---,0.00,VWS V14.00,2013-06-24 05:56:00,
2013-06-24 02:01:00,71.7,66.3,30.02,West,272,0.0,4.0,83,0.00,,---,0.00,VWS V14.00,2013-06-24 06:01:00,
2013-06-24 02:06:00,71.5,66.4,30.02,West,262,1.0,4.0,84,0.00,,---,0.00,VWS V14.00,2013-06-24 06:06:00,
2013-06-24 02:11:00,71.4,66.3,30.02,WSW,258,0.0,4.0,84,0.00,,---,0.00,VWS V14.00,2013-06-24 06:11:00,
2013-06-24 02:17:00,71.2,66.1,30.02,West,275,0.0,4.0,84,0.00,,---,0.00,VWS V14.00,2013-06-24 06:17:00,
2013-06-24 02:22:00,71.1,66.0,30.02,West,275,0.0,4.0,84,0.00,,---,0.00,VWS V14.00,2013-06-24 06:22:00,
2013-06-24 02:27:00,71.0,66.3,30.02,West,275,0.0,4.0,85,0.00,,---,0.00,VWS V14.00,2013-06-24 06:27:00,
2013-06-24 02:32:00,71.0,66.3,30.02,West,274,0.0,4.0,85,0.00,,---,0.00,VWS V14.00,2013-06-24 06:32:00,
2013-06-24 02:37:00,70.8,66.1,30.02,West,273,4.0,4.0,85,0.00,,---,0.00,VWS V14.00,2013-06-24 06:37:00,
2013-06-24 02:43:00,70.7,66.0,30.02,West,270,0.0,4.0,85,0.00,,---,0.00,VWS V14.00,2013-06-24 06:43:00,
2013-06-24 02:48:00,70.5,66.1,30.02,West,265,1.0,4.0,86,0.00,,---,0.00,VWS V14.00,2013-06-24 06:48:00,
2013-06-24 02:53:00,70.4,66.0,30.02,WSW,251,0.0,5.0,86,0.00,,---,0.00,VWS V14.00,2013-06-24 06:53:00,
2013-06-24 02:58:00,70.3,66.2,30.02,WSW,251,0.0,5.0,87,0.00,,---,0.00,VWS V14.00,2013-06-24 06:58:00,
2013-06-24 03:03:00,70.2,66.2,30.01,WSW,251,0.0,3.0,87,0.00,,---,0.00,VWS V14.00,2013-06-24 07:03:00,
2013-06-24 03:09:00,70.2,66.2,30.01,WSW,251,1.0,3.0,87,0.00,,---,0.00,VWS V14.00,2013-06-24 07:09:00,
2013-06-24 03:15:00,70.1,66.1,30.01,WSW,252,0.0,3.0,87,0.00,,---,0.00,VWS V14.00,2013-06-24 07:15:00,
2013-06-24 03:20:00,70.0,66.0,30.01,WSW,252,0.0,3.0,87,0.00,,---,0.00,VWS V14.00,2013-06-24 07:20:00,
2013-06-24 03:25:00,69.9,65.9,30.02,WSW,252,0.0,3.0,87,0.00,,---,0.00,VWS V14.00,2013-06-24 07:25:00,
2013-06-24 03:30:00,69.8,66.1,30.02,WSW,252,0.0,1.0,88,0.00,,---,0.00,VWS V14.00,2013-06-24 07:30:00,
2013-06-24 03:36:00,69.7,66.0,30.02,WSW,252,0.0,1.0,88,0.00,,---,0.00,VWS V14.00,2013-06-24 07:36:00,
2013-06-24 03:41:00,69.7,66.0,30.02,WSW,252,0.0,1.0,88,0.00,,---,0.00,VWS V14.00,2013-06-24 07:41:00,
2013-06-24 03:47:00,69.5,65.8,30.01,WSW,252,0.0,1.0,88,0.00,,---,0.00,VWS V14.00,2013-06-24 07:47:00,
2013-06-24 03:53:00,69.5,66.1,30.01,WSW,252,0.0,1.0,89,0.00,,---,0.00,VWS V14.00,2013-06-24 07:53:00,
2013-06-24 03:58:00,69.5,66.1,30.01,WSW,252,0.0,1.0,89,0.00,,---,0.00,VWS V14.00,2013-06-24 07:58:00,
2013-06-24 04:04:00,69.4,66.0,30.01,WSW,252,0.0,0.0,89,0.00,,---,0.00,VWS V14.00,2013-06-24 08:04:00,
2013-06-24 04:09:00,69.4,66.0,30.01,WSW,252,0.0,0.0,89,0.00,,---,0.00,VWS V14.00,2013-06-24 08:09:00,
2013-06-24 04:14:00,69.4,66.0,30.01,WSW,252,0.0,1.0,89,0.00,,---,0.00,VWS V14.00,2013-06-24 08:14:00,
2013-06-24 04:19:00,69.3,65.9,30.00,WSW,252,0.0,1.0,89,0.00,,---,0.00,VWS V14.00,2013-06-24 08:19:00,
2013-06-24 04:25:00,69.3,65.9,30.01,WSW,252,0.0,1.0,89,0.00,,---,0.00,VWS V14.00,2013-06-24 08:25:00,
2013-06-24 04:30:00,69.2,65.8,30.01,WSW,252,0.0,0.0,89,0.00,,---,0.00,VWS V14.00,2013-06-24 08:30:00,
2013-06-24 04:35:00,69.2,65.8,30.01,WSW,252,0.0,0.0,89,0.00,,---,0.00,VWS V14.00,2013-06-24 08:35:00,
2013-06-24 04:41:00,69.1,65.7,30.01,WSW,252,0.0,0.0,89,0.00,,---,0.00,VWS V14.00,2013-06-24 08:41:00,
2013-06-24 04:46:00,69.0,65.6,30.00,WSW,252,0.0,0.0,89,0.00,,---,0.00,VWS V14.00,2013-06-24 08:46:00,
2013-06-24 04:52:00,69.0,65.6,30.01,WSW,252,0.0,0.0,89,0.00,,---,0.00,VWS V14.00,2013-06-24 08:52:00,
2013-06-24 04:57:00,69.0,65.6,30.00,WSW,252,0.0,0.0,89,0.00,,---,0.00,VWS V14.00,2013-06-24 08:57:00,
2013-06-24 05:02:00,68.9,65.8,30.01,WSW,252,0.0,0.0,90,0.00,,---,0.00,VWS V14.00,2013-06-24 09:02:00,
2013-06-24 05:08:00,68.9,65.5,30.00,WSW,252,0.0,0.0,89,0.00,,---,0.00,VWS V14.00,2013-06-24 09:08:00,
2013-06-24 05:13:00,68.8,65.4,30.00,WSW,252,0.0,0.0,89,0.00,,---,0.00,VWS V14.00,2013-06-24 09:13:00,
2013-06-24 05:19:00,68.7,65.3,30.00,WSW,252,0.0,0.0,89,0.00,,---,0.00,VWS V14.00,2013-06-24 09:19:00,
2013-06-24 05:25:00,68.8,65.8,30.00,WSW,252,0.0,0.0,90,0.00,,---,0.00,VWS V14.00,2013-06-24 09:25:00,
2013-06-24 05:30:00,68.7,65.7,30.01,WSW,252,0.0,0.0,90,0.00,,---,0.00,VWS V14.00,2013-06-24 09:30:00,
2013-06-24 05:35:00,68.7,65.7,30.01,WSW,252,0.0,0.0,90,0.00,,---,0.00,VWS V14.00,2013-06-24 09:35:00,
2013-06-24 05:40:00,68.7,65.7,30.01,WSW,252,0.0,0.0,90,0.00,,---,0.00,VWS V14.00,2013-06-24 09:40:00,
2013-06-24 05:46:00,68.6,65.6,30.01,WSW,252,0.0,0.0,90,0.00,,---,0.00,VWS V14.00,2013-06-24 09:46:00,
2013-06-24 05:51:00,68.6,65.6,30.01,WSW,252,0.0,0.0,90,0.00,,---,0.00,VWS V14.00,2013-06-24 09:51:00,
2013-06-24 05:56:00,68.6,65.6,30.01,WSW,252,0.0,0.0,90,0.00,,---,0.00,VWS V14.00,2013-06-24 09:56:00,
2013-06-24 06:02:00,68.6,65.6,30.01,WSW,252,0.0,0.0,90,0.00,,---,0.00,VWS V14.00,2013-06-24 10:02:00,
2013-06-24 06:08:00,68.6,65.6,30.01,WSW,252,0.0,0.0,90,0.00,,---,0.00,VWS V14.00,2013-06-24 10:08:00,
2013-06-24 06:14:00,68.5,65.5,30.00,WSW,252,0.0,0.0,90,0.00,,---,0.00,VWS V14.00,2013-06-24 10:14:00,
2013-06-24 06:20:00,68.5,65.5,30.00,WSW,252,0.0,0.0,90,0.00,,---,0.00,VWS V14.00,2013-06-24 10:20:00,
2013-06-24 06:25:00,68.5,65.5,30.00,WSW,252,0.0,0.0,90,0.00,,---,0.00,VWS V14.00,2013-06-24 10:25:00,
2013-06-24 06:30:00,68.5,65.8,30.01,WSW,252,0.0,0.0,91,0.00,,---,0.00,VWS V14.00,2013-06-24 10:30:00,
2013-06-24 06:35:00,68.5,65.8,30.01,WSW,252,0.0,0.0,91,0.00,,---,0.00,VWS V14.00,2013-06-24 10:35:00,
2013-06-24 06:41:00,68.5,65.8,30.01,WSW,252,0.0,0.0,91,0.00,,---,0.00,VWS V14.00,2013-06-24 10:41:00,
2013-06-24 06:46:00,68.6,65.9,30.01,WSW,252,0.0,0.0,91,0.00,,---,0.00,VWS V14.00,2013-06-24 10:46:00,
2013-06-24 06:52:00,68.6,65.9,30.01,WSW,252,0.0,0.0,91,0.00,,---,0.00,VWS V14.00,2013-06-24 10:52:00,
2013-06-24 06:58:00,68.6,65.9,30.00,WSW,252,0.0,0.0,91,0.00,,---,0.00,VWS V14.00,2013-06-24 10:58:00,
2013-06-24 07:03:00,68.8,66.1,30.01,WSW,252,0.0,1.0,91,0.00,,---,0.00,VWS V14.00,2013-06-24 11:03:00,
2013-06-24 07:08:00,68.8,66.1,30.01,WSW,252,0.0,1.0,91,0.00,,---,0.00,VWS V14.00,2013-06-24 11:08:00,
2013-06-24 07:13:00,68.9,66.2,30.01,WSW,252,0.0,1.0,91,0.00,,---,0.00,VWS V14.00,2013-06-24 11:13:00,
2013-06-24 07:18:00,69.0,66.3,30.01,WSW,252,0.0,1.0,91,0.00,,---,0.00,VWS V14.00,2013-06-24 11:18:00,
2013-06-24 07:23:00,69.1,66.4,30.01,WSW,251,0.0,4.0,91,0.00,,---,0.00,VWS V14.00,2013-06-24 11:23:00,
2013-06-24 07:28:00,69.2,66.5,30.01,WSW,250,0.0,4.0,91,0.00,,---,0.00,VWS V14.00,2013-06-24 11:28:00,
2013-06-24 07:34:00,69.3,66.6,30.01,WSW,250,0.0,1.0,91,0.00,,---,0.00,VWS V14.00,2013-06-24 11:34:00,
2013-06-24 07:39:00,69.5,66.8,30.01,WSW,250,0.0,1.0,91,0.00,,---,0.00,VWS V14.00,2013-06-24 11:39:00,
2013-06-24 07:44:00,69.7,67.0,30.02,WSW,250,0.0,2.0,91,0.00,,---,0.00,VWS V14.00,2013-06-24 11:44:00,
2013-06-24 07:49:00,69.9,67.2,30.02,WSW,250,0.0,2.0,91,0.00,,---,0.00,VWS V14.00,2013-06-24 11:49:00,
2013-06-24 07:54:00,70.2,67.1,30.02,WSW,250,0.0,2.0,90,0.00,,---,0.00,VWS V14.00,2013-06-24 11:54:00,
2013-06-24 08:00:00,70.4,67.3,30.02,WSW,255,0.0,3.0,90,0.00,,---,0.00,VWS V14.00,2013-06-24 12:00:00,
2013-06-24 08:05:00,70.7,67.6,30.03,West,265,0.0,2.0,90,0.00,,---,0.00,VWS V14.00,2013-06-24 12:05:00,
2013-06-24 08:10:00,71.0,67.6,30.03,West,265,0.0,3.0,89,0.00,,---,0.00,VWS V14.00,2013-06-24 12:10:00,
2013-06-24 08:15:00,71.4,68.0,30.03,West,265,2.0,4.0,89,0.00,,---,0.00,VWS V14.00,2013-06-24 12:15:00,
2013-06-24 08:21:00,72.0,68.3,30.04,WSW,249,0.0,7.0,88,0.00,,---,0.00,VWS V14.00,2013-06-24 12:21:00,
2013-06-24 08:26:00,72.5,68.4,30.03,WNW,292,4.0,10.0,87,0.00,,---,0.00,VWS V14.00,2013-06-24 12:26:00,
2013-06-24 08:31:00,73.0,68.6,30.03,West,261,1.0,3.0,86,0.00,,---,0.00,VWS V14.00,2013-06-24 12:31:00,
2013-06-24 08:36:00,73.4,68.6,30.03,West,274,0.0,12.0,85,0.00,,---,0.00,VWS V14.00,2013-06-24 12:36:00,
2013-06-24 08:41:00,73.6,68.5,30.03,WSW,247,3.0,12.0,84,0.00,,---,0.00,VWS V14.00,2013-06-24 12:41:00,
2013-06-24 08:47:00,73.7,68.6,30.03,WSW,254,0.0,12.0,84,0.00,,---,0.00,VWS V14.00,2013-06-24 12:47:00,
2013-06-24 08:52:00,73.9,68.8,30.03,West,265,0.0,12.0,84,0.00,,---,0.00,VWS V14.00,2013-06-24 12:52:00,
2013-06-24 08:57:00,74.1,69.0,30.03,West,277,7.0,12.0,84,0.00,,---,0.00,VWS V14.00,2013-06-24 12:57:00,
2013-06-24 09:02:00,74.4,68.9,30.03,SW,217,3.0,12.0,83,0.00,,---,0.00,VWS V14.00,2013-06-24 13:02:00,
2013-06-24 09:07:00,74.7,69.2,30.03,West,267,0.0,12.0,83,0.00,,---,0.00,VWS V14.00,2013-06-24 13:07:00,
2013-06-24 09:14:00,75.2,69.3,30.03,West,261,0.0,12.0,82,0.00,,---,0.00,VWS V14.00,2013-06-24 13:14:00,
2013-06-24 09:19:00,75.4,69.5,30.03,West,270,0.0,12.0,82,0.00,,---,0.00,VWS V14.00,2013-06-24 13:19:00,
2013-06-24 09:24:00,75.7,69.8,30.03,WSW,251,0.0,12.0,82,0.00,,---,0.00,VWS V14.00,2013-06-24 13:24:00,
2013-06-24 09:30:00,75.8,69.6,30.03,West,263,1.0,12.0,81,0.00,,---,0.00,VWS V14.00,2013-06-24 13:30:00,
2013-06-24 09:35:00,76.0,69.8,30.03,West,262,0.0,2.0,81,0.00,,---,0.00,VWS V14.00,2013-06-24 13:35:00,
2013-06-24 09:40:00,76.2,69.9,30.03,West,269,4.0,5.0,81,0.00,,---,0.00,VWS V14.00,2013-06-24 13:40:00,
2013-06-24 09:46:00,76.4,70.1,30.03,WSW,242,6.0,10.0,81,0.00,,---,0.00,VWS V14.00,2013-06-24 13:46:00,
2013-06-24 09:51:00,76.5,70.2,30.04,West,269,8.0,14.0,81,0.00,,---,0.00,VWS V14.00,2013-06-24 13:51:00,
2013-06-24 09:56:00,76.6,70.3,30.04,West,263,0.0,14.0,81,0.00,,---,0.00,VWS V14.00,2013-06-24 13:56:00,
2013-06-24 10:01:00,76.6,70.3,30.04,WSW,251,3.0,10.0,81,0.00,,---,0.00,VWS V14.00,2013-06-24 14:01:00,
2013-06-24 10:07:00,76.6,70.3,30.04,WSW,252,3.0,11.0,81,0.00,,---,0.00,VWS V14.00,2013-06-24 14:07:00,
2013-06-24 10:12:00,76.7,70.1,30.03,West,277,1.0,14.0,80,0.00,,---,0.00,VWS V14.00,2013-06-24 14:12:00,
2013-06-24 10:18:00,76.9,70.6,30.04,WNW,288,6.0,14.0,81,0.00,,---,0.00,VWS V14.00,2013-06-24 14:18:00,
2013-06-24 10:23:00,77.1,70.1,30.04,West,267,2.0,14.0,79,0.00,,---,0.00,VWS V14.00,2013-06-24 14:23:00,
2013-06-24 10:28:00,77.2,70.2,30.04,West,267,4.0,14.0,79,0.00,,---,0.00,VWS V14.00,2013-06-24 14:28:00,
2013-06-24 10:33:00,77.3,70.3,30.04,WSW,241,3.0,13.0,79,0.00,,---,0.00,VWS V14.00,2013-06-24 14:33:00,
2013-06-24 10:38:00,77.2,69.8,30.04,West,270,5.0,13.0,78,0.00,,---,0.00,VWS V14.00,2013-06-24 14:38:00,
2013-06-24 10:43:00,77.0,69.2,30.04,WSW,249,5.0,13.0,77,0.00,,---,0.00,VWS V14.00,2013-06-24 14:43:00,
2013-06-24 10:49:00,76.9,69.2,30.04,WSW,239,2.0,13.0,77,0.00,,---,0.00,VWS V14.00,2013-06-24 14:49:00,
2013-06-24 10:54:00,77.3,69.9,30.04,West,265,1.0,13.0,78,0.00,,---,0.00,VWS V14.00,2013-06-24 14:54:00,
2013-06-24 10:59:00,77.8,70.4,30.04,West,271,0.0,13.0,78,0.00,,---,0.00,VWS V14.00,2013-06-24 14:59:00,
2013-06-24 11:04:00,77.8,69.6,30.04,SW,236,5.0,8.0,76,0.00,,---,0.00,VWS V14.00,2013-06-24 15:04:00,
2013-06-24 11:10:00,78.0,69.4,30.04,West,272,4.0,12.0,75,0.00,,---,0.00,VWS V14.00,2013-06-24 15:10:00,
2013-06-24 11:16:00,78.4,69.8,30.04,West,264,4.0,12.0,75,0.00,,---,0.00,VWS V14.00,2013-06-24 15:16:00,
2013-06-24 11:21:00,78.8,69.0,30.04,WSW,252,2.0,12.0,72,0.00,,---,0.00,VWS V14.00,2013-06-24 15:21:00,
2013-06-24 11:26:00,79.2,69.4,30.04,West,267,5.0,13.0,72,0.00,,---,0.00,VWS V14.00,2013-06-24 15:26:00,
2013-06-24 11:32:00,79.7,69.9,30.04,West,273,4.0,7.0,72,0.00,,---,0.00,VWS V14.00,2013-06-24 15:32:00,
2013-06-24 11:37:00,80.1,69.9,30.04,West,270,0.0,11.0,71,0.00,,---,0.00,VWS V14.00,2013-06-24 15:37:00,
2013-06-24 11:42:00,80.3,70.1,30.04,WSW,238,0.0,12.0,71,0.00,,---,0.00,VWS V14.00,2013-06-24 15:42:00,
2013-06-24 11:47:00,80.3,69.6,30.05,West,269,5.0,12.0,70,0.00,,---,0.00,VWS V14.00,2013-06-24 15:47:00,
2013-06-24 11:52:00,80.4,70.1,30.05,WSW,245,3.0,12.0,71,0.00,,---,0.00,VWS V14.00,2013-06-24 15:52:00,
2013-06-24 11:57:00,80.5,69.4,30.04,West,277,6.0,12.0,69,0.00,,---,0.00,VWS V14.00,2013-06-24 15:57:00,
2013-06-24 12:03:00,80.4,69.7,30.05,West,271,4.0,9.0,70,0.00,,---,0.00,VWS V14.00,2013-06-24 16:03:00,
2013-06-24 12:09:00,80.5,70.2,30.04,West,277,0.0,9.0,71,0.00,,---,0.00,VWS V14.00,2013-06-24 16:09:00,
2013-06-24 12:14:00,80.7,70.0,30.04,WSW,254,5.0,9.0,70,0.00,,---,0.00,VWS V14.00,2013-06-24 16:14:00,
2013-06-24 12:20:00,80.7,70.4,30.04,WSW,258,3.0,9.0,71,0.00,,---,0.00,VWS V14.00,2013-06-24 16:20:00,
2013-06-24 12:25:00,80.7,70.4,30.04,WSW,254,0.0,9.0,71,0.00,,---,0.00,VWS V14.00,2013-06-24 16:25:00,
2013-06-24 12:30:00,81.1,70.0,30.04,West,271,0.0,8.0,69,0.00,,---,0.00,VWS V14.00,2013-06-24 16:30:00,
2013-06-24 12:35:00,80.9,69.8,30.04,WSW,247,2.0,8.0,69,0.00,,---,0.00,VWS V14.00,2013-06-24 16:35:00,
2013-06-24 12:40:00,81.2,70.5,30.03,West,269,0.0,8.0,70,0.00,,---,0.00,VWS V14.00,2013-06-24 16:40:00,
2013-06-24 12:46:00,81.4,70.3,30.03,WSW,247,2.0,8.0,69,0.00,,---,0.00,VWS V14.00,2013-06-24 16:46:00,
2013-06-24 12:51:00,81.4,69.8,30.03,WSW,248,4.0,8.0,68,0.00,,---,0.00,VWS V14.00,2013-06-24 16:51:00,
2013-06-24 12:56:00,81.5,69.9,30.03,West,267,2.0,8.0,68,0.00,,---,0.00,VWS V14.00,2013-06-24 16:56:00,
2013-06-24 13:01:00,81.6,70.4,30.03,WSW,244,0.0,3.0,69,0.00,,---,0.00,VWS V14.00,2013-06-24 17:01:00,
2013-06-24 13:07:00,82.1,70.5,30.03,WSW,257,0.0,3.0,68,0.00,,---,0.00,VWS V14.00,2013-06-24 17:07:00,
2013-06-24 13:12:00,82.6,69.7,30.02,West,262,6.0,6.0,65,0.00,,---,0.00,VWS V14.00,2013-06-24 17:12:00,
2013-06-24 13:17:00,82.9,69.9,30.01,WSW,247,0.0,6.0,65,0.00,,---,0.00,VWS V14.00,2013-06-24 17:17:00,
2013-06-24 13:22:00,83.2,69.8,30.01,West,260,0.0,6.0,64,0.00,,---,0.00,VWS V14.00,2013-06-24 17:22:00,
2013-06-24 13:28:00,83.6,70.1,30.00,WSW,252,1.0,6.0,64,0.00,,---,0.00,VWS V14.00,2013-06-24 17:28:00,
2013-06-24 13:33:00,83.8,69.9,30.00,West,261,2.0,10.0,63,0.00,,---,0.00,VWS V14.00,2013-06-24 17:33:00,
2013-06-24 13:39:00,84.0,70.1,30.00,West,275,0.0,10.0,63,0.00,,---,0.00,VWS V14.00,2013-06-24 17:39:00,
2013-06-24 13:44:00,84.5,70.1,30.00,SW,233,3.0,10.0,62,0.00,,---,0.00,VWS V14.00,2013-06-24 17:44:00,
2013-06-24 13:49:00,84.8,70.3,29.99,SW,219,2.0,10.0,62,0.00,,---,0.00,VWS V14.00,2013-06-24 17:49:00,
2013-06-24 13:54:00,85.2,69.8,29.99,WSW,253,0.0,10.0,60,0.00,,---,0.00,VWS V14.00,2013-06-24 17:54:00,
2013-06-24 14:00:00,85.3,69.4,29.98,WSW,254,0.0,10.0,59,0.00,,---,0.00,VWS V14.00,2013-06-24 18:00:00,
2013-06-24 14:05:00,85.5,69.1,29.98,West,265,0.0,5.0,58,0.00,,---,0.00,VWS V14.00,2013-06-24 18:05:00,
2013-06-24 14:11:00,85.9,69.9,29.97,West,264,1.0,5.0,59,0.00,,---,0.00,VWS V14.00,2013-06-24 18:11:00,
2013-06-24 14:16:00,86.3,69.8,29.97,SW,219,0.0,6.0,58,0.00,,---,0.00,VWS V14.00,2013-06-24 18:16:00,
2013-06-24 14:21:00,86.5,70.0,29.96,WSW,250,0.0,6.0,58,0.00,,---,0.00,VWS V14.00,2013-06-24 18:21:00,
2013-06-24 14:26:00,86.7,70.2,29.96,WSW,257,2.0,8.0,58,0.00,,---,0.00,VWS V14.00,2013-06-24 18:26:00,
2013-06-24 14:31:00,86.6,69.6,29.95,West,272,1.0,2.0,57,0.00,,---,0.00,VWS V14.00,2013-06-24 18:31:00,
2013-06-24 14:37:00,86.6,68.5,29.95,West,272,0.0,2.0,55,0.00,,---,0.00,VWS V14.00,2013-06-24 18:37:00,
2013-06-24 14:42:00,86.9,67.7,29.95,West,265,0.0,3.0,53,0.00,,---,0.00,VWS V14.00,2013-06-24 18:42:00,
2013-06-24 14:47:00,87.0,67.8,29.94,West,267,2.0,3.0,53,0.00,,---,0.00,VWS V14.00,2013-06-24 18:47:00,
2013-06-24 14:52:00,87.5,68.8,29.94,West,261,0.0,3.0,54,0.00,,---,0.00,VWS V14.00,2013-06-24 18:52:00,
2013-06-24 14:57:00,88.0,69.8,29.94,West,260,3.0,4.0,55,0.00,,---,0.00,VWS V14.00,2013-06-24 18:57:00,
2013-06-24 15:02:00,88.0,68.7,29.95,West,259,0.0,3.0,53,0.00,,---,0.00,VWS V14.00,2013-06-24 19:02:00,
2013-06-24 15:08:00,87.9,69.2,29.95,WSW,242,0.0,4.0,54,0.00,,---,0.00,VWS V14.00,2013-06-24 19:08:00,
2013-06-24 15:13:00,87.9,69.2,29.96,West,269,6.0,11.0,54,0.00,,---,0.00,VWS V14.00,2013-06-24 19:13:00,
2013-06-24 15:18:00,87.3,69.7,29.96,West,263,0.0,11.0,56,0.00,,---,0.00,VWS V14.00,2013-06-24 19:18:00,
2013-06-24 15:23:00,87.1,69.0,29.96,WSW,255,1.0,11.0,55,0.00,,---,0.00,VWS V14.00,2013-06-24 19:23:00,
2013-06-24 15:29:00,87.0,68.4,29.97,WNW,284,7.0,11.0,54,0.00,,---,0.00,VWS V14.00,2013-06-24 19:29:00,
2013-06-24 15:34:00,86.9,68.8,29.97,WNW,299,7.0,13.0,55,0.00,,---,0.00,VWS V14.00,2013-06-24 19:34:00,
2013-06-24 15:39:00,86.4,68.3,29.96,NW,317,0.0,13.0,55,0.00,,---,0.00,VWS V14.00,2013-06-24 19:39:00,
2013-06-24 15:45:00,86.4,69.4,29.95,WNW,298,4.0,13.0,57,0.00,,---,0.00,VWS V14.00,2013-06-24 19:45:00,
2013-06-24 15:50:00,86.9,69.8,29.95,West,279,5.0,13.0,57,0.00,,---,0.00,VWS V14.00,2013-06-24 19:50:00,
2013-06-24 15:55:00,87.1,69.5,29.95,West,279,0.0,13.0,56,0.00,,---,0.00,VWS V14.00,2013-06-24 19:55:00,
2013-06-24 16:01:00,87.5,69.4,29.95,ENE,60,0.0,2.0,55,0.00,,---,0.00,VWS V14.00,2013-06-24 20:01:00,
2013-06-24 16:06:00,87.5,67.7,29.96,WSW,241,0.0,8.0,52,0.00,,---,0.00,VWS V14.00,2013-06-24 20:06:00,
2013-06-24 16:11:00,87.3,68.6,29.95,West,264,0.0,8.0,54,0.00,,---,0.00,VWS V14.00,2013-06-24 20:11:00,
2013-06-24 16:18:00,87.4,69.8,29.95,WSW,253,2.0,8.0,56,0.00,,---,0.00,VWS V14.00,2013-06-24 20:18:00,
2013-06-24 16:23:00,87.2,69.1,29.95,West,281,0.0,8.0,55,0.00,,---,0.00,VWS V14.00,2013-06-24 20:23:00,
2013-06-24 16:28:00,86.8,68.7,29.95,West,273,5.0,11.0,55,0.00,,---,0.00,VWS V14.00,2013-06-24 20:28:00,
2013-06-24 16:33:00,86.5,69.0,29.95,West,270,0.0,3.0,56,0.00,,---,0.00,VWS V14.00,2013-06-24 20:33:00,
2013-06-24 16:38:00,86.5,69.0,29.95,West,270,0.0,3.0,56,0.00,,---,0.00,VWS V14.00,2013-06-24 20:38:00,
2013-06-24 16:44:00,86.5,69.0,29.94,West,265,1.0,4.0,56,0.00,,---,0.00,VWS V14.00,2013-06-24 20:44:00,
2013-06-24 16:49:00,86.9,68.8,29.94,WNW,282,0.0,4.0,55,0.00,,---,0.00,VWS V14.00,2013-06-24 20:49:00,
2013-06-24 16:54:00,87.7,70.1,29.94,West,269,1.0,5.0,56,0.00,,---,0.00,VWS V14.00,2013-06-24 20:54:00,
2013-06-24 17:00:00,88.0,69.3,29.93,West,269,0.0,5.0,54,0.00,,---,0.00,VWS V14.00,2013-06-24 21:00:00,
2013-06-24 17:05:00,87.6,70.0,29.93,West,261,0.0,8.0,56,0.00,,---,0.00,VWS V14.00,2013-06-24 21:05:00,
2013-06-24 17:10:00,87.4,69.3,29.93,West,279,4.0,12.0,55,0.00,,---,0.00,VWS V14.00,2013-06-24 21:10:00,
2013-06-24 17:15:00,87.0,69.9,29.93,West,269,1.0,12.0,57,0.00,,---,0.00,VWS V14.00,2013-06-24 21:15:00,
2013-06-24 17:21:00,86.9,68.8,29.93,WSW,257,1.0,12.0,55,0.00,,---,0.00,VWS V14.00,2013-06-24 21:21:00,
2013-06-24 17:26:00,86.6,69.1,29.92,SW,236,1.0,12.0,56,0.00,,---,0.00,VWS V14.00,2013-06-24 21:26:00,
2013-06-24 17:31:00,86.6,69.6,29.92,West,261,0.0,2.0,57,0.00,,---,0.00,VWS V14.00,2013-06-24 21:31:00,
2013-06-24 17:36:00,86.6,69.1,29.92,WSW,258,3.0,7.0,56,0.00,,---,0.00,VWS V14.00,2013-06-24 21:36:00,
2013-06-24 17:42:00,86.3,68.8,29.92,West,259,2.0,11.0,56,0.00,,---,0.00,VWS V14.00,2013-06-24 21:42:00,
2013-06-24 17:47:00,85.9,68.9,29.93,WSW,256,4.0,11.0,57,0.00,,---,0.00,VWS V14.00,2013-06-24 21:47:00,
2013-06-24 17:53:00,86.0,69.5,29.93,West,274,0.0,11.0,58,0.00,,---,0.00,VWS V14.00,2013-06-24 21:53:00,
2013-06-24 17:58:00,86.2,69.2,29.93,SW,236,0.0,11.0,57,0.00,,---,0.00,VWS V14.00,2013-06-24 21:58:00,
2013-06-24 18:03:00,86.2,70.2,29.93,West,265,2.0,4.0,59,0.00,,---,0.00,VWS V14.00,2013-06-24 22:03:00,
2013-06-24 18:08:00,86.4,69.4,29.93,WSW,241,0.0,4.0,57,0.00,,---,0.00,VWS V14.00,2013-06-24 22:08:00,
2013-06-24 18:13:00,86.4,67.8,29.93,SW,234,1.0,7.0,54,0.00,,---,0.00,VWS V14.00,2013-06-24 22:13:00,
2013-06-24 18:18:00,86.0,68.0,29.93,West,259,1.0,13.0,55,0.00,,---,0.00,VWS V14.00,2013-06-24 22:18:00,
2013-06-24 18:26:00,85.6,68.1,29.93,WSW,256,1.0,13.0,56,0.00,,---,0.00,VWS V14.00,2013-06-24 22:26:00,
2013-06-24 18:31:00,85.5,68.0,29.93,WSW,240,0.0,2.0,56,0.00,,---,0.00,VWS V14.00,2013-06-24 22:31:00,
2013-06-24 18:37:00,85.4,68.4,29.93,WSW,240,1.0,9.0,57,0.00,,---,0.00,VWS V14.00,2013-06-24 22:37:00,
2013-06-24 18:42:00,85.3,68.3,29.93,West,268,1.0,12.0,57,0.00,,---,0.00,VWS V14.00,2013-06-24 22:42:00,
2013-06-24 18:47:00,85.3,68.3,29.93,WNW,288,0.0,12.0,57,0.00,,---,0.00,VWS V14.00,2013-06-24 22:47:00,
2013-06-24 18:52:00,85.2,68.8,29.93,WSW,250,1.0,12.0,58,0.00,,---,0.00,VWS V14.00,2013-06-24 22:52:00,
2013-06-24 18:58:00,85.2,69.3,29.93,WSW,256,5.0,12.0,59,0.00,,---,0.00,VWS V14.00,2013-06-24 22:58:00,
2013-06-24 19:04:00,84.9,69.0,29.93,West,275,6.0,12.0,59,0.00,,---,0.00,VWS V14.00,2013-06-24 23:04:00,
2013-06-24 19:09:00,84.8,68.9,29.93,WSW,246,1.0,12.0,59,0.00,,---,0.00,VWS V14.00,2013-06-24 23:09:00,
2013-06-24 19:14:00,84.6,69.2,29.93,West,267,1.0,12.0,60,0.00,,---,0.00,VWS V14.00,2013-06-24 23:14:00,
2013-06-24 19:19:00,84.6,69.7,29.93,WSW,252,5.0,12.0,61,0.00,,---,0.00,VWS V14.00,2013-06-24 23:19:00,
2013-06-24 19:25:00,84.4,70.0,29.93,NW,306,2.0,12.0,62,0.00,,---,0.00,VWS V14.00,2013-06-24 23:25:00,
2013-06-24 19:30:00,84.2,68.8,29.93,WSW,246,7.0,13.0,60,0.00,,---,0.00,VWS V14.00,2013-06-24 23:30:00,
2013-06-24 19:35:00,84.1,68.7,29.93,West,262,1.0,13.0,60,0.00,,---,0.00,VWS V14.00,2013-06-24 23:35:00,
2013-06-24 19:40:00,83.9,69.0,29.93,SW,236,4.0,13.0,61,0.00,,---,0.00,VWS V14.00,2013-06-24 23:40:00,
2013-06-24 19:46:00,83.7,69.3,29.93,WSW,238,3.0,13.0,62,0.00,,---,0.00,VWS V14.00,2013-06-24 23:46:00,
2013-06-24 19:51:00,83.6,69.7,29.93,West,267,3.0,13.0,63,0.00,,---,0.00,VWS V14.00,2013-06-24 23:51:00,
2013-06-24 19:56:00,83.5,69.6,29.93,WSW,257,5.0,13.0,63,0.00,,---,0.00,VWS V14.00,2013-06-24 23:56:00,
2013-06-24 20:01:00,83.4,69.5,29.93,WSW,257,3.0,7.0,63,0.00,,---,0.00,VWS V14.00,2013-06-25 00:01:00,
2013-06-24 20:07:00,83.2,69.8,29.93,West,263,2.0,8.0,64,0.00,,---,0.00,VWS V14.00,2013-06-25 00:07:00,
2013-06-24 20:12:00,83.0,69.6,29.92,West,259,2.0,11.0,64,0.00,,---,0.00,VWS V14.00,2013-06-25 00:12:00,
2013-06-24 20:17:00,82.9,69.9,29.92,SW,218,0.0,11.0,65,0.00,,---,0.00,VWS V14.00,2013-06-25 00:17:00,
2013-06-24 20:22:00,82.9,69.9,29.92,WSW,251,3.0,12.0,65,0.00,,---,0.00,VWS V14.00,2013-06-25 00:22:00,
2013-06-24 20:27:00,82.9,69.9,29.92,West,261,0.0,12.0,65,0.00,,---,0.00,VWS V14.00,2013-06-25 00:27:00,
2013-06-24 20:33:00,82.8,69.8,29.92,West,275,4.0,7.0,65,0.00,,---,0.00,VWS V14.00,2013-06-25 00:33:00,
2013-06-24 20:38:00,82.7,70.2,29.92,West,274,0.0,7.0,66,0.00,,---,0.00,VWS V14.00,2013-06-25 00:38:00,
2013-06-24 20:43:00,82.5,70.0,29.92,West,274,0.0,7.0,66,0.00,,---,0.00,VWS V14.00,2013-06-25 00:43:00,
2013-06-24 20:49:00,82.5,70.4,29.92,West,274,0.0,7.0,67,0.00,,---,0.00,VWS V14.00,2013-06-25 00:49:00,
2013-06-24 20:55:00,82.3,70.3,29.92,WSW,251,0.0,7.0,67,0.00,,---,0.00,VWS V14.00,2013-06-25 00:55:00,
2013-06-24 21:01:00,82.1,70.5,29.92,West,265,0.0,1.0,68,0.00,,---,0.00,VWS V14.00,2013-06-25 01:01:00,
2013-06-24 21:06:00,82.0,70.4,29.92,West,273,0.0,4.0,68,0.00,,---,0.00,VWS V14.00,2013-06-25 01:06:00,
2013-06-24 21:11:00,81.9,70.3,29.92,West,280,0.0,5.0,68,0.00,,---,0.00,VWS V14.00,2013-06-25 01:11:00,
2013-06-24 21:16:00,81.8,70.6,29.92,West,278,0.0,5.0,69,0.00,,---,0.00,VWS V14.00,2013-06-25 01:16:00,
2013-06-24 21:22:00,81.7,70.6,29.92,WSW,254,3.0,6.0,69,0.00,,---,0.00,VWS V14.00,2013-06-25 01:22:00,
2013-06-24 21:27:00,81.5,70.4,29.93,West,266,0.0,6.0,69,0.00,,---,0.00,VWS V14.00,2013-06-25 01:27:00,
2013-06-24 21:32:00,81.4,70.7,29.92,West,261,0.0,4.0,70,0.00,,---,0.00,VWS V14.00,2013-06-25 01:32:00,
2013-06-24 21:38:00,81.4,70.7,29.93,NW,311,7.0,11.0,70,0.00,,---,0.00,VWS V14.00,2013-06-25 01:38:00,
2013-06-24 21:43:00,78.7,66.4,29.97,West,281,7.0,14.0,66,0.00,,---,0.00,VWS V14.00,2013-06-25 01:43:00,
2013-06-24 21:48:00,75.6,65.9,29.97,WSW,254,2.0,14.0,72,0.00,,---,0.00,VWS V14.00,2013-06-25 01:48:00,
2013-06-24 21:54:00,73.9,66.2,29.95,WSW,248,3.0,14.0,77,0.00,,---,0.00,VWS V14.00,2013-06-25 01:54:00,
2013-06-24 21:59:00,72.7,66.2,29.95,WSW,245,0.0,14.0,80,0.00,,---,0.00,VWS V14.00,2013-06-25 01:59:00,
2013-06-24 22:05:00,71.7,65.6,29.94,West,267,0.0,9.0,81,0.00,,---,0.00,VWS V14.00,2013-06-25 02:05:00,
2013-06-24 22:10:00,71.3,65.9,29.92,West,268,0.0,9.0,83,0.00,,---,0.00,VWS V14.00,2013-06-25 02:10:00,
2013-06-24 22:15:00,71.1,66.0,29.93,West,268,1.0,9.0,84,0.00,,---,0.00,VWS V14.00,2013-06-25 02:15:00,
2013-06-24 22:21:00,70.7,65.6,29.94,West,277,0.0,9.0,84,0.00,,---,0.00,VWS V14.00,2013-06-25 02:21:00,
2013-06-24 22:27:00,70.3,65.2,29.93,West,259,7.0,12.0,84,0.00,,---,0.00,VWS V14.00,2013-06-25 02:27:00,
2013-06-24 22:32:00,69.7,65.0,29.93,WNW,291,0.0,6.0,85,0.00,,---,0.00,VWS V14.00,2013-06-25 02:32:00,
2013-06-24 22:37:00,69.1,64.4,29.94,West,267,0.0,6.0,85,0.00,,---,0.00,VWS V14.00,2013-06-25 02:37:00,
2013-06-24 22:43:00,68.6,64.2,29.94,West,260,4.0,6.0,86,0.00,,---,0.00,VWS V14.00,2013-06-25 02:43:00,
2013-06-24 22:49:00,68.4,64.4,29.93,West,259,0.0,6.0,87,0.01,,---,0.01,VWS V14.00,2013-06-25 02:49:00,
2013-06-24 22:54:00,68.2,64.2,29.93,West,263,0.0,6.0,87,0.01,,---,0.01,VWS V14.00,2013-06-25 02:54:00,
2013-06-24 22:59:00,68.1,64.1,29.93,West,263,0.0,6.0,87,0.01,,---,0.01,VWS V14.00,2013-06-25 02:59:00,
2013-06-24 23:04:00,68.0,64.0,29.92,West,263,0.0,1.0,87,0.02,,---,0.02,VWS V14.00,2013-06-25 03:04:00,
2013-06-24 23:10:00,68.0,64.0,29.92,West,274,0.0,4.0,87,0.02,,---,0.02,VWS V14.00,2013-06-25 03:10:00,
2013-06-24 23:15:00,68.0,64.0,29.92,West,269,0.0,4.0,87,0.02,,---,0.02,VWS V14.00,2013-06-25 03:15:00,
2013-06-24 23:20:00,68.1,64.1,29.92,West,269,0.0,4.0,87,0.02,,---,0.02,VWS V14.00,2013-06-25 03:20:00,
2013-06-24 23:26:00,68.1,64.1,29.92,West,269,0.0,7.0,87,0.02,,---,0.02,VWS V14.00,2013-06-25 03:26:00,
2013-06-24 23:31:00,68.2,64.2,29.92,WSW,254,1.0,4.0,87,0.02,,---,0.02,VWS V14.00,2013-06-25 03:31:00,
2013-06-24 23:36:00,68.3,64.3,29.91,WSW,254,0.0,4.0,87,0.02,,---,0.02,VWS V14.00,2013-06-25 03:36:00,
2013-06-24 23:42:00,68.3,64.3,29.90,WSW,254,0.0,4.0,87,0.02,,---,0.02,VWS V14.00,2013-06-25 03:42:00,
2013-06-24 23:47:00,68.3,64.3,29.89,WSW,254,0.0,4.0,87,0.02,,---,0.02,VWS V14.00,2013-06-25 03:47:00,
2013-06-24 23:53:00,68.3,64.6,29.88,WSW,254,0.0,4.0,88,0.02,,---,0.02,VWS V14.00,2013-06-25 03:53:00,
2013-06-24 23:58:00,68.4,64.7,29.88,WSW,254,0.0,4.0,88,0.02,,---,0.02,VWS V14.00,2013-06-25 03:58:00,